sat.trackr.live / text

‹ back to catalog

STARLINK-34649

NORAD 64798 · 2025-150J

PAYLOAD ACTIVE UNKNOWN

§ Identity

Operator
Country
US
Launch date
2025-07-16
Launch site
AFWTR
Launch vehicle
Mass (kg)
RCS (m²)

Purposes: comms

External: N2YO · Heavens-Above · Gunter

§ Orbital elements

Epoch: 2026-09-20T13:19:34.045824Z

Period
96.11 min
Inclination
70.0027°
Eccentricity
0.0003336
Mean motion
14.98336795 rev/d
Perigee alt
569.7 km
Apogee alt
574.4 km
Semi-major
6,950.2 km
B*
2.2402e-4
RAAN
3.2188°
Arg perigee
269.4894°
Mean anomaly
90.5883°
Rev number
6,659

§ Raw data

STARLINK-346491 64798U 25150J   26263.55525516  .00002581  00000+0  22402-3 0  99982 64798  70.0027   3.2188 0003336 269.4894  90.5883 14.98336795 66595

JSON: /api/v1/satellites/64798 · /tle

For live sub-satellite position, see the globe view (requires WebGL).

§ Visibility from observer

Set your observer location to see the next 7 days of passes ≥ 10°. The values pass through the URL so the page stays shareable.

No JS? Fill the form by hand. The geolocation button needs JavaScript.